WINGS NECK MA US USARMY-COE current weather conditions

sailwx.info

Wind from 223 at 20 knots

Air temperature 10.5° C

Last reported at 2019-Dec-09 23:30 UTC.
Time now 2019-Dec-10 00:35 UTC

Location: N 41°44' W 070°36'.
View on Google Maps.

See reports from other nearby stations

  
Tides and Currents Weather Stations Pressure Air Temp Water Temp Dewpoint Dewpoint Depression Visibility Wind Speed Wind Dir Waves Ship Positions
date/time (UTC)wind fromknots sea level pressurealtimeterstation pressurevisibilityair tempwater tempwave heightnotes
2019-Dec-09 23:30 223 20 10.5
2019-Dec-09 22:30 218 19 10.0
2019-Dec-09 21:31 216 17 9.7
2019-Dec-09 21:30 216 17 9.7
2019-Dec-09 20:30 207 21 11.0
2019-Dec-09 19:30 192 19 11.4
2019-Dec-09 18:30 219 22 9.7
2019-Dec-09 17:30 203 24 11.4
2019-Dec-09 16:30 210 20 10.2
2019-Dec-09 15:30 196 17 10.5
2019-Dec-09 14:30 196 11 10.2
2019-Dec-09 13:30 211 13 9.0
2019-Dec-09 12:30 199 17 9.2
2019-Dec-09 11:30 198 13 8.4
2019-Dec-09 10:30 208 8 7.3
2019-Dec-09 09:30 209 11 7.3
2019-Dec-09 08:30 227 9 6.7
2019-Dec-09 07:30 225 11 6.5
2019-Dec-09 06:30 223 12 6.8
2019-Dec-09 05:30 237 13 6.7
2019-Dec-09 04:30 222 12 6.4
2019-Dec-09 03:31 225 12 6.1
2019-Dec-09 03:30 225 12 6.1
2019-Dec-09 02:30 223 13 5.9
2019-Dec-09 01:30 222 14 5.5
2019-Dec-09 00:30 210 14 4.6
2019-Dec-08 23:30 217 14 4.6
2019-Dec-08 22:30 234 14 4.4
2019-Dec-08 21:31 236 12 3.9
2019-Dec-08 21:30 236 12 3.9
2019-Dec-08 20:30 251 13 3.4
2019-Dec-08 19:30 237 14 2.8
2019-Dec-08 18:30 235 8 1.9
2019-Dec-08 17:30 255 5 0.9
2019-Dec-08 16:30 200 2 0.3
2019-Dec-08 15:30 198 1 -0.6
2019-Dec-08 15:16 227 1 -1.3
2019-Dec-08 14:30 327 -2.4
2019-Dec-08 13:30 021 2 -3.7
2019-Dec-08 12:30 017 5 -4.1
2019-Dec-08 11:30 355 2 -4.5
2019-Dec-08 10:30 020 6 -3.6
2019-Dec-08 09:30 006 7 -3.4
2019-Dec-08 09:16 016 6 -3.4
2019-Dec-08 08:30 354 6 -3.3
2019-Dec-08 07:30 342 6 -2.8
2019-Dec-08 06:30 352 9 -2.3
2019-Dec-08 05:30 354 9 -2.1
2019-Dec-08 04:30 -1.5
2019-Dec-08 03:30 012 11 -1.3
2019-Dec-08 03:15 351 11 -1.1
2019-Dec-08 02:30 003 10 -1.1
2019-Dec-08 01:30 357 13 -0.6
2019-Dec-08 00:30 002 10 -0.3